Tracking 31027 objects as of 19-Jul-2025
HD Live streaming from Space Station
objects crossing your sky now

ECHOSTAR 1 PKM

Track ECHOSTAR 1 PKM now!
10-day predictions


NORAD ID: 23756
Int'l Code: 1995-073C
Perigee: 236.6 km
Apogee: 17,418.3 km
Inclination: 24.2 °
Period: 310.8 minutes
Semi major axis: 15198 km
RCS: 4.8958 m2 (large)
Launch date: December 28, 1995
Source: People's Republic of China (PRC)
Launch site: Xichang Space Center, China (XSC)

Note: This is a ROCKET BODY
Your satellite tracking list
Your tracking list is empty




NASA's NSSDC Master Catalog

Two Line Element Set (TLE):
1 23756U 95073C   25199.88790649  .00011536  00000-0  64991-3 0  9992
2 23756  24.2059  59.7947 5652426 334.1783   6.0974  4.63344691345881
Source of the keplerian elements: AFSPC